TC69 SABE-SABE

Flight info

Callsign TC69
Flight time 0h 46m
Altitude 10000
Route ZZZZ
Aircraft C130/M-SDE2E3FGHIRWXY/LB1

Departure

Time 2026-05-08 03:18
Airport Aeroparque Jorge Newbery (SABE)

Arrival

Time 2026-05-08 04:04
Airport Aeroparque Jorge Newbery (SABE)
Time Latitude Longitude Altitude Speed Heading
2026-05-08 03:13 -34.56558 -58.40824 27 ft 0 kts 174°
2026-05-08 03:15 -34.56559 -58.40824 27 ft 1 kts 172°
2026-05-08 03:15 -34.56563 -58.40818 27 ft 0 kts 98°
2026-05-08 03:16 -34.56561 -58.40812 27 ft 3 kts 51°
2026-05-08 03:16 -34.56541 -58.40818 27 ft 6 kts 320°
2026-05-08 03:17 -34.56495 -58.40822 27 ft 7 kts 55°
2026-05-08 03:17 -34.56473 -58.40770 27 ft 14 kts 64°
2026-05-08 03:17 -34.56434 -58.40698 27 ft 6 kts 19°
2026-05-08 03:17 -34.56367 -58.40792 27 ft 36 kts 303°
2026-05-08 03:18 -34.56101 -58.41263 27 ft 99 kts 305°
2026-05-08 03:18 -34.55611 -58.42146 41 ft 151 kts 306°
2026-05-08 03:18 -34.54937 -58.43200 800 ft 145 kts 304°
2026-05-08 03:18 -34.54227 -58.44266 1326 ft 173 kts 304°
2026-05-08 03:19 -34.53167 -58.45091 2198 ft 186 kts 338°
2026-05-08 03:19 -34.51822 -58.45145 2898 ft 213 kts
2026-05-08 03:19 -34.50366 -58.44510 3493 ft 235 kts 25°
2026-05-08 03:19 -34.48869 -58.43432 3816 ft 263 kts 30°
2026-05-08 03:20 -34.47263 -58.42206 4257 ft 280 kts 31°
2026-05-08 03:20 -34.45730 -58.40695 4715 ft 291 kts 52°
2026-05-08 03:20 -34.44887 -58.38485 5179 ft 291 kts 82°
2026-05-08 03:20 -34.44946 -58.36070 5663 ft 285 kts 108°
2026-05-08 03:21 -34.45807 -58.33964 6136 ft 277 kts 136°
2026-05-08 03:21 -34.47308 -58.32648 6598 ft 267 kts 164°
2026-05-08 03:21 -34.49099 -58.32403 7087 ft 257 kts 194°
2026-05-08 03:21 -34.50776 -58.33093 7588 ft 254 kts 208°
2026-05-08 03:22 -34.52262 -58.34226 8079 ft 253 kts 216°
2026-05-08 03:22 -34.53775 -58.35341 8579 ft 255 kts 213°
2026-05-08 03:22 -34.55314 -58.36432 9072 ft 258 kts 213°
2026-05-08 03:22 -34.56873 -58.37564 9459 ft 263 kts 216°
2026-05-08 03:23 -34.58358 -58.38878 9832 ft 267 kts 220°
2026-05-08 03:23 -34.59645 -58.40482 10188 ft 268 kts 241°
2026-05-08 03:23 -34.60240 -58.42678 10199 ft 283 kts 258°
2026-05-08 03:23 -34.60553 -58.45091 10212 ft 294 kts 268°
2026-05-08 03:24 -34.60364 -58.47588 10087 ft 299 kts 274°
2026-05-08 03:24 -34.60281 -58.50118 9922 ft 301 kts 269°
2026-05-08 03:24 -34.60346 -58.52661 9753 ft 303 kts 265°
2026-05-08 03:24 -34.60516 -58.55197 9718 ft 300 kts 263°
2026-05-08 03:25 -34.60754 -58.57698 9719 ft 296 kts 262°
2026-05-08 03:25 -34.61033 -58.60121 9717 ft 285 kts 261°
2026-05-08 03:25 -34.61318 -58.62409 9702 ft 264 kts 260°
2026-05-08 03:25 -34.61598 -58.64542 9687 ft 249 kts 259°
2026-05-08 03:26 -34.61876 -58.66566 9674 ft 237 kts 259°
2026-05-08 03:26 -34.62147 -58.68500 9656 ft 228 kts 259°
2026-05-08 03:26 -34.62413 -58.70371 9658 ft 221 kts 259°
2026-05-08 03:26 -34.62678 -58.72214 9819 ft 224 kts 259°
2026-05-08 03:27 -34.62954 -58.74095 10006 ft 228 kts 259°
2026-05-08 03:27 -34.63233 -58.76006 10215 ft 231 kts 259°
2026-05-08 03:27 -34.63515 -58.77937 10437 ft 233 kts 259°
2026-05-08 03:27 -34.63795 -58.79859 10656 ft 234 kts 259°
2026-05-08 03:28 -34.64001 -58.81821 10874 ft 236 kts 271°
2026-05-08 03:28 -34.63538 -58.83737 11086 ft 244 kts 301°
2026-05-08 03:28 -34.62239 -58.85088 11317 ft 255 kts 331°
2026-05-08 03:28 -34.60465 -58.85461 11556 ft 268 kts
2026-05-08 03:29 -34.58681 -58.84721 11814 ft 278 kts 30°
2026-05-08 03:29 -34.57332 -58.83020 12063 ft 285 kts 58°
2026-05-08 03:29 -34.56666 -58.80750 12301 ft 287 kts 76°
2026-05-08 03:29 -34.56242 -58.78375 12480 ft 290 kts 78°
2026-05-08 03:30 -34.55522 -58.73592 12556 ft 289 kts 79°
2026-05-08 03:30 -34.54854 -58.68832 12665 ft 282 kts 80°
2026-05-08 03:31 -34.54212 -58.64164 12665 ft 279 kts 80°
2026-05-08 03:31 -34.53581 -58.59549 12653 ft 277 kts 80°
2026-05-08 03:32 -34.53267 -58.57252 12653 ft 276 kts 80°
2026-05-08 03:32 -34.52956 -58.54958 12651 ft 275 kts 80°
2026-05-08 03:32 -34.52711 -58.52655 12640 ft 275 kts 91°
2026-05-08 03:32 -34.53191 -58.50445 12620 ft 271 kts 123°
2026-05-08 03:33 -34.54448 -58.48810 12618 ft 265 kts 153°
2026-05-08 03:33 -34.56168 -58.48125 12623 ft 260 kts 183°
2026-05-08 03:33 -34.57901 -58.48548 12640 ft 254 kts 212°
2026-05-08 03:33 -34.59184 -58.49951 12646 ft 249 kts 242°
2026-05-08 03:34 -34.59729 -58.51924 12667 ft 248 kts 259°
2026-05-08 03:34 -34.60077 -58.53978 12681 ft 247 kts 260°
2026-05-08 03:34 -34.60392 -58.56010 12675 ft 244 kts 261°
2026-05-08 03:34 -34.60687 -58.58029 12664 ft 242 kts 261°
2026-05-08 03:35 -34.60971 -58.60007 12674 ft 240 kts 261°
2026-05-08 03:35 -34.61257 -58.62003 12674 ft 239 kts 261°
2026-05-08 03:35 -34.61543 -58.63985 12673 ft 238 kts 261°
2026-05-08 03:35 -34.61843 -58.66095 12667 ft 237 kts 261°
2026-05-08 03:36 -34.62123 -58.68066 12670 ft 236 kts 261°
2026-05-08 03:36 -34.62400 -58.70002 12656 ft 236 kts 261°
2026-05-08 03:36 -34.62680 -58.71964 12666 ft 235 kts 262°
2026-05-08 03:36 -34.62522 -58.73914 12652 ft 237 kts 292°
2026-05-08 03:37 -34.61456 -58.75438 12649 ft 245 kts 323°
2026-05-08 03:37 -34.59813 -58.76053 12648 ft 256 kts 354°
2026-05-08 03:37 -34.58055 -58.75549 12648 ft 267 kts 25°
2026-05-08 03:37 -34.56659 -58.74033 12643 ft 276 kts 54°
2026-05-08 03:38 -34.55939 -58.71908 12653 ft 278 kts 75°
2026-05-08 03:38 -34.55495 -58.69622 12665 ft 278 kts 77°
2026-05-08 03:38 -34.55105 -58.67319 12667 ft 279 kts 78°
2026-05-08 03:38 -34.54738 -58.65008 12659 ft 279 kts 79°
2026-05-08 03:39 -34.54382 -58.62692 12669 ft 279 kts 79°
2026-05-08 03:39 -34.54034 -58.60396 12661 ft 280 kts 79°
2026-05-08 03:39 -34.53688 -58.58079 12659 ft 280 kts 79°
2026-05-08 03:39 -34.53411 -58.55744 12657 ft 280 kts 91°
2026-05-08 03:40 -34.53877 -58.53483 12637 ft 277 kts 122°
2026-05-08 03:40 -34.55136 -58.51779 12631 ft 269 kts 152°
2026-05-08 03:40 -34.56842 -58.51032 12632 ft 257 kts 181°
2026-05-08 03:40 -34.58542 -58.51387 12629 ft 245 kts 212°
2026-05-08 03:41 -34.59770 -58.52710 12635 ft 235 kts 243°
2026-05-08 03:41 -34.60240 -58.54571 12649 ft 231 kts 262°
2026-05-08 03:41 -34.60522 -58.56488 12661 ft 231 kts 261°
2026-05-08 03:41 -34.60703 -58.57763 12660 ft 231 kts 261°
2026-05-08 03:42 -34.60970 -58.59697 12667 ft 232 kts 262°
2026-05-08 03:42 -34.61323 -58.62267 12663 ft 232 kts 261°
2026-05-08 03:42 -34.61506 -58.63573 12668 ft 233 kts 261°
2026-05-08 03:42 -34.61770 -58.65483 12666 ft 233 kts 261°
2026-05-08 03:43 -34.62131 -58.68077 12665 ft 233 kts 261°
2026-05-08 03:43 -34.62313 -58.69362 12671 ft 233 kts 261°
2026-05-08 03:43 -34.62590 -58.71303 12667 ft 233 kts 261°
2026-05-08 03:43 -34.62633 -58.73256 12658 ft 234 kts 284°
2026-05-08 03:44 -34.61772 -58.74931 12651 ft 241 kts 316°
2026-05-08 03:44 -34.60233 -58.75791 12654 ft 252 kts 347°
2026-05-08 03:44 -34.58461 -58.75556 12655 ft 264 kts 18°
2026-05-08 03:44 -34.56956 -58.74281 12648 ft 274 kts 47°
2026-05-08 03:45 -34.56067 -58.72233 12650 ft 278 kts 74°
2026-05-08 03:45 -34.55626 -58.69951 12667 ft 278 kts 78°
2026-05-08 03:45 -34.55254 -58.67646 12668 ft 279 kts 79°
2026-05-08 03:45 -34.54913 -58.65331 12670 ft 279 kts 79°
2026-05-08 03:46 -34.54585 -58.63008 12675 ft 279 kts 80°
2026-05-08 03:46 -34.54263 -58.60683 12674 ft 280 kts 80°
2026-05-08 03:46 -34.53945 -58.58356 12667 ft 280 kts 80°
2026-05-08 03:46 -34.53629 -58.56025 12667 ft 280 kts 80°
2026-05-08 03:47 -34.53313 -58.53689 12668 ft 280 kts 80°
2026-05-08 03:47 -34.53002 -58.51351 12677 ft 281 kts 80°
2026-05-08 03:47 -34.52690 -58.49015 12678 ft 281 kts 80°
2026-05-08 03:47 -34.52382 -58.46676 12673 ft 281 kts 80°
2026-05-08 03:48 -34.52437 -58.44357 12644 ft 281 kts 108°
2026-05-08 03:48 -34.53363 -58.42323 12639 ft 275 kts 137°
2026-05-08 03:48 -34.54911 -58.41079 12636 ft 264 kts 167°
2026-05-08 03:48 -34.56684 -58.40904 12640 ft 252 kts 197°
2026-05-08 03:49 -34.58203 -58.41798 12639 ft 240 kts 228°
2026-05-08 03:49 -34.59038 -58.43474 12642 ft 232 kts 259°
2026-05-08 03:49 -34.59229 -58.45409 12660 ft 231 kts 265°
2026-05-08 03:49 -34.59413 -58.47354 12670 ft 231 kts 264°
2026-05-08 03:50 -34.59609 -58.49292 12665 ft 232 kts 264°
2026-05-08 03:50 -34.59824 -58.51235 12666 ft 232 kts 263°
2026-05-08 03:50 -34.60056 -58.53173 12669 ft 233 kts 262°
2026-05-08 03:50 -34.60303 -58.55114 12672 ft 233 kts 262°
2026-05-08 03:51 -34.60562 -58.57052 12637 ft 228 kts 262°
2026-05-08 03:51 -34.60809 -58.58869 12486 ft 214 kts 262°
2026-05-08 03:51 -34.60635 -58.60595 12217 ft 207 kts 296°
2026-05-08 03:51 -34.59613 -58.61873 11921 ft 219 kts 319°
2026-05-08 03:52 -34.58364 -58.62962 11660 ft 223 kts 320°
2026-05-08 03:52 -34.57075 -58.64003 11326 ft 223 kts 322°
2026-05-08 03:52 -34.55750 -58.65015 10951 ft 227 kts 323°
2026-05-08 03:52 -34.54393 -58.66016 10592 ft 229 kts 323°
2026-05-08 03:53 -34.53018 -58.67008 10243 ft 231 kts 324°
2026-05-08 03:53 -34.51645 -58.67986 9914 ft 232 kts 324°
2026-05-08 03:53 -34.50250 -58.68972 9580 ft 232 kts 324°
2026-05-08 03:53 -34.48850 -58.69957 9220 ft 233 kts 324°
2026-05-08 03:54 -34.47446 -58.70941 8866 ft 233 kts 324°
2026-05-08 03:54 -34.46047 -58.71919 8535 ft 232 kts 324°
2026-05-08 03:54 -34.44647 -58.72896 8196 ft 232 kts 324°
2026-05-08 03:54 -34.43249 -58.73872 7865 ft 232 kts 324°
2026-05-08 03:55 -34.41846 -58.74852 7538 ft 232 kts 324°
2026-05-08 03:55 -34.40440 -58.75834 7175 ft 235 kts 324°
2026-05-08 03:55 -34.39018 -58.76827 6805 ft 237 kts 324°
2026-05-08 03:55 -34.37499 -58.77674 6391 ft 248 kts 344°
2026-05-08 03:56 -34.35748 -58.77535 6036 ft 260 kts 17°
2026-05-08 03:56 -34.34098 -58.76608 5678 ft 262 kts 25°
2026-05-08 03:56 -34.32508 -58.75586 5302 ft 262 kts 27°
2026-05-08 03:56 -34.30920 -58.74516 5048 ft 258 kts 26°
2026-05-08 03:57 -34.29277 -58.73753 4825 ft 249 kts
2026-05-08 03:57 -34.27659 -58.73073 4637 ft 246 kts 33°
2026-05-08 03:57 -34.26574 -58.71564 4601 ft 233 kts 68°
2026-05-08 03:57 -34.26326 -58.69724 4573 ft 215 kts 105°
2026-05-08 03:58 -34.26939 -58.68161 4565 ft 209 kts 142°
2026-05-08 03:58 -34.28204 -58.67350 4591 ft 209 kts 178°
2026-05-08 03:58 -34.29657 -58.67453 4628 ft 213 kts 192°
2026-05-08 03:58 -34.31067 -58.67705 4633 ft 199 kts 193°
2026-05-08 03:59 -34.32407 -58.67944 4626 ft 191 kts 189°
2026-05-08 03:59 -34.33703 -58.67912 4606 ft 187 kts 179°
2026-05-08 03:59 -34.35021 -58.67583 4612 ft 205 kts 169°
2026-05-08 03:59 -34.36418 -58.66927 4638 ft 224 kts 160°
2026-05-08 04:00 -34.37831 -58.65981 4656 ft 239 kts 153°
2026-05-08 04:00 -34.39228 -58.64802 4677 ft 250 kts 148°
2026-05-08 04:00 -34.40596 -58.63452 4691 ft 258 kts 144°
2026-05-08 04:00 -34.41934 -58.61975 4642 ft 261 kts 141°
2026-05-08 04:01 -34.43257 -58.60410 3863 ft 272 kts 140°
2026-05-08 04:01 -34.44574 -58.58697 3137 ft 281 kts 138°
2026-05-08 04:01 -34.45873 -58.56906 2499 ft 284 kts 137°
2026-05-08 04:01 -34.47135 -58.55101 2276 ft 274 kts 136°
2026-05-08 04:02 -34.48316 -58.53420 2136 ft 257 kts 132°
2026-05-08 04:02 -34.49477 -58.51845 1918 ft 246 kts 133°
2026-05-08 04:02 -34.50637 -58.50305 1583 ft 240 kts 132°
2026-05-08 04:02 -34.51704 -58.48807 1234 ft 236 kts 131°
2026-05-08 04:03 -34.52711 -58.47310 1009 ft 221 kts 137°
2026-05-08 04:03 -34.54362 -58.44405 469 ft 194 kts 133°
2026-05-08 04:03 -34.55082 -58.43091 199 ft 179 kts 134°
2026-05-08 04:04 -34.55746 -58.41896 33 ft 161 kts 126°
2026-05-08 04:04 -34.56286 -58.40933 27 ft 109 kts 124°
2026-05-08 04:04 -34.56525 -58.40497 27 ft 15 kts 133°
2026-05-08 04:04 -34.56558 -58.40463 27 ft 5 kts 123°
2026-05-08 04:05 -34.56528 -58.40466 27 ft 11 kts 285°
2026-05-08 04:05 -34.56488 -58.40569 27 ft 20 kts 302°
2026-05-08 04:05 -34.56444 -58.40692 27 ft 13 kts 259°
2026-05-08 04:05 -34.56474 -58.40766 27 ft 15 kts 246°
2026-05-08 04:06 -34.56527 -58.40829 27 ft 9 kts 157°
2026-05-08 04:06 -34.56563 -58.40759 27 ft 13 kts 110°
2026-05-08 04:06 -34.56592 -58.40730 27 ft 4 kts 221°
2026-05-08 04:06 -34.56601 -58.40744 27 ft 0 kts 236°